Location: Carlisle
(34.5501°N, 84.5969°W)
Time: 08:01:59
(UTC+00:00)

N. Korean satellite - Visible Passes

Search period start: 30 November 2022 00:00
Search period end: 10 December 2022 00:00
Orbit: 421 x 454 km, 97.3° (Epoch: 29 November)

Date Brightness Start Highest point End Pass type
(mag) Time Alt. Az. Time Alt. Az. Time Alt. Az.
30 Nov 6.5 10:48:55 10° NNE 10:52:19 75° ESE 10:55:41 10° S visible
01 Dec 9.2 10:10:59 10° NE 10:13:29 19° E 10:15:58 10° SE visible
01 Dec 7.9 11:43:33 10° NNW 11:45:50 17° WNW 11:48:06 10° WSW visible
02 Dec 6.3 11:03:53 10° N 11:07:16 62° WNW 11:10:34 10° SSW visible
02 Dec 9.6 23:03:08 10° SW 23:05:21 17° W 23:07:36 10° NW visible
03 Dec 8.3 10:25:23 10° NNE 10:28:26 30° E 10:31:26 10° SSE visible
03 Dec 8.4 11:59:40 10° NW 12:00:34 11° WNW 12:01:29 10° W visible
04 Dec 6.9 11:18:52 10° N 11:22:01 36° WNW 11:25:06 10° SW visible
04 Dec 10.2 23:19:38 10° WSW 23:20:13 10° W 23:20:49 10° W visible
05 Dec 7.2 10:39:53 10° NNE 10:43:12 52° E 10:46:27 10° S visible
06 Dec 9.6 10:02:17 10° ENE 10:04:08 14° E 10:05:57 10° SE visible
06 Dec 7.5 11:33:54 10° NNW 11:36:35 22° WNW 11:39:15 10° SW visible
07 Dec 6.2 10:54:24 10° N 10:57:47 90° WNW 11:01:06 10° SSW visible
07 Dec 9.3 22:53:00 10° SSW 22:55:43 23° W 22:58:28 10° NW visible
08 Dec 8.9 10:16:03 10° NE 10:18:43 22° E 10:21:22 10° SSE visible
08 Dec 8.1 11:49:05 10° NW 11:50:59 15° WNW 11:52:53 10° WSW visible
09 Dec 6.4 11:08:54 10° N 11:12:11 51° WNW 11:15:25 10° SSW visible
09 Dec 9.7 23:08:15 10° SW 23:10:12 15° W 23:12:10 10° WNW visible
